Time,TemperatureF,DewpointF,PressureIn,WindDirection,WindDirectionDegrees,WindSpeedMPH,WindSpeedGustMPH,Humidity,HourlyPrecipIn,Conditions,Clouds,dailyrainin,SoftwareType,DateUTC
2013-01-26 00:00:00,19.5,18.1,30.06,SW,229,0.0,2.0,94,0.00,,,0.00,VWS V14.00,2013-01-26 05:00:00,
2013-01-26 00:01:00,19.5,18.1,30.06,SW,229,0.0,0.0,94,0.00,,,0.00,VWS V14.00,2013-01-26 05:01:00,
2013-01-26 00:06:00,19.6,18.2,30.06,SW,232,1.0,1.0,94,0.00,,,0.00,VWS V14.00,2013-01-26 05:06:00,
2013-01-26 00:11:00,19.7,18.3,30.06,WSW,249,0.0,2.0,94,0.00,,,0.00,VWS V14.00,2013-01-26 05:11:00,
2013-01-26 00:16:00,19.7,18.3,30.07,WSW,249,0.0,2.0,94,0.00,,,0.00,VWS V14.00,2013-01-26 05:16:00,
2013-01-26 00:21:00,19.7,18.3,30.07,WSW,249,0.0,3.0,94,0.00,,,0.00,VWS V14.00,2013-01-26 05:21:00,
2013-01-26 00:26:00,19.7,18.0,30.06,WSW,250,1.0,3.0,93,0.00,,,0.00,VWS V14.00,2013-01-26 05:26:00,
2013-01-26 00:31:00,19.7,18.0,30.06,NW,314,0.0,1.0,93,0.00,,,0.00,VWS V14.00,2013-01-26 05:31:00,
2013-01-26 00:36:00,19.8,18.4,30.06,North,360,0.0,3.0,94,0.00,,,0.00,VWS V14.00,2013-01-26 05:36:00,
2013-01-26 00:41:00,19.8,18.4,30.07,North,360,0.0,3.0,94,0.00,,,0.00,VWS V14.00,2013-01-26 05:41:00,
2013-01-26 00:46:00,19.9,18.2,30.07,North,5,0.0,3.0,93,0.00,,,0.00,VWS V14.00,2013-01-26 05:46:00,
2013-01-26 00:51:00,19.9,18.2,30.07,North,5,0.0,3.0,93,0.00,,,0.00,VWS V14.00,2013-01-26 05:51:00,
2013-01-26 00:56:00,19.9,18.2,30.07,North,5,0.0,3.0,93,0.00,,,0.00,VWS V14.00,2013-01-26 05:56:00,
2013-01-26 01:01:00,19.9,18.2,30.07,North,5,0.0,0.0,93,0.00,,,0.00,VWS V14.00,2013-01-26 06:01:00,
2013-01-26 01:06:00,19.9,18.2,30.08,North,5,0.0,0.0,93,0.00,,,0.00,VWS V14.00,2013-01-26 06:06:00,
2013-01-26 01:12:00,19.9,18.2,30.08,North,5,0.0,0.0,93,0.00,,,0.00,VWS V14.00,2013-01-26 06:12:00,
2013-01-26 01:17:00,19.9,18.2,30.08,North,5,0.0,0.0,93,0.00,,,0.00,VWS V14.00,2013-01-26 06:17:00,
2013-01-26 01:22:00,19.9,18.2,30.08,WNW,295,0.0,5.0,93,0.00,,,0.00,VWS V14.00,2013-01-26 06:22:00,
2013-01-26 01:27:00,19.9,18.2,30.09,WNW,295,0.0,5.0,93,0.00,,,0.00,VWS V14.00,2013-01-26 06:27:00,
2013-01-26 01:32:00,20.0,18.3,30.09,West,275,0.0,3.0,93,0.00,,,0.00,VWS V14.00,2013-01-26 06:32:00,
2013-01-26 01:37:00,20.0,18.3,30.09,West,275,0.0,3.0,93,0.00,,,0.00,VWS V14.00,2013-01-26 06:37:00,
2013-01-26 01:42:00,20.0,18.3,30.09,West,275,0.0,3.0,93,0.00,,,0.00,VWS V14.00,2013-01-26 06:42:00,
2013-01-26 01:47:00,20.0,18.3,30.09,West,275,0.0,3.0,93,0.00,,,0.00,VWS V14.00,2013-01-26 06:47:00,
2013-01-26 01:52:00,19.9,18.2,30.10,West,275,0.0,3.0,93,0.00,,,0.00,VWS V14.00,2013-01-26 06:52:00,
2013-01-26 01:57:00,19.9,18.2,30.10,West,275,0.0,3.0,93,0.00,,,0.00,VWS V14.00,2013-01-26 06:57:00,
2013-01-26 02:02:00,19.9,18.2,30.10,West,275,0.0,0.0,93,0.00,,,0.00,VWS V14.00,2013-01-26 07:02:00,
2013-01-26 02:07:00,19.9,18.2,30.10,West,275,0.0,1.0,93,0.00,,,0.00,VWS V14.00,2013-01-26 07:07:00,
2013-01-26 02:12:00,19.9,18.2,30.10,West,275,0.0,1.0,93,0.00,,,0.00,VWS V14.00,2013-01-26 07:12:00,
2013-01-26 02:17:00,19.9,18.0,30.10,West,275,0.0,2.0,92,0.00,,,0.00,VWS V14.00,2013-01-26 07:17:00,
2013-01-26 02:22:00,19.9,18.0,30.11,West,275,0.0,2.0,92,0.00,,,0.00,VWS V14.00,2013-01-26 07:22:00,
2013-01-26 02:27:00,19.9,18.0,30.11,West,275,0.0,2.0,92,0.00,,,0.00,VWS V14.00,2013-01-26 07:27:00,
2013-01-26 02:33:00,19.9,18.0,30.11,West,275,0.0,0.0,92,0.00,,,0.00,VWS V14.00,2013-01-26 07:33:00,
2013-01-26 02:38:00,19.9,18.0,30.11,West,275,0.0,0.0,92,0.00,,,0.00,VWS V14.00,2013-01-26 07:38:00,
2013-01-26 02:43:00,19.9,18.0,30.11,West,275,0.0,0.0,92,0.00,,,0.00,VWS V14.00,2013-01-26 07:43:00,
2013-01-26 02:48:00,19.9,18.0,30.11,West,275,0.0,2.0,92,0.00,,,0.00,VWS V14.00,2013-01-26 07:48:00,
2013-01-26 02:53:00,19.9,18.0,30.12,West,275,0.0,2.0,92,0.00,,,0.00,VWS V14.00,2013-01-26 07:53:00,
2013-01-26 02:58:00,19.9,18.0,30.12,West,275,0.0,2.0,92,0.00,,,0.00,VWS V14.00,2013-01-26 07:58:00,
2013-01-26 03:03:00,19.8,17.9,30.12,West,275,0.0,0.0,92,0.00,,,0.00,VWS V14.00,2013-01-26 08:03:00,
2013-01-26 03:08:00,19.8,17.9,30.12,West,275,0.0,0.0,92,0.00,,,0.00,VWS V14.00,2013-01-26 08:08:00,
2013-01-26 03:13:00,19.7,17.8,30.12,West,275,0.0,0.0,92,0.00,,,0.00,VWS V14.00,2013-01-26 08:13:00,
2013-01-26 03:18:00,19.7,17.8,30.13,West,275,0.0,0.0,92,0.00,,,0.00,VWS V14.00,2013-01-26 08:18:00,
2013-01-26 03:24:00,19.8,17.9,30.13,West,275,0.0,0.0,92,0.00,,,0.00,VWS V14.00,2013-01-26 08:24:00,
2013-01-26 03:29:00,19.8,17.9,30.13,West,275,0.0,1.0,92,0.00,,,0.00,VWS V14.00,2013-01-26 08:29:00,
2013-01-26 03:34:00,19.8,17.9,30.13,West,275,0.0,1.0,92,0.00,,,0.00,VWS V14.00,2013-01-26 08:34:00,
2013-01-26 03:39:00,19.8,17.9,30.13,West,275,0.0,1.0,92,0.00,,,0.00,VWS V14.00,2013-01-26 08:39:00,
2013-01-26 03:44:00,19.8,17.9,30.13,West,275,0.0,2.0,92,0.00,,,0.00,VWS V14.00,2013-01-26 08:44:00,
2013-01-26 03:49:00,19.9,17.7,30.14,West,275,0.0,2.0,91,0.00,,,0.00,VWS V14.00,2013-01-26 08:49:00,
2013-01-26 03:54:00,19.8,17.6,30.14,West,275,0.0,2.0,91,0.00,,,0.00,VWS V14.00,2013-01-26 08:54:00,
2013-01-26 04:00:00,19.8,17.6,30.14,West,275,0.0,2.0,91,0.00,,,0.00,VWS V14.00,2013-01-26 09:00:00,
2013-01-26 04:05:00,19.8,17.6,30.14,West,275,0.0,0.0,91,0.00,,OVC044,0.00,VWS V14.00,2013-01-26 09:05:00,
2013-01-26 04:10:00,19.7,17.5,30.15,West,275,0.0,0.0,91,0.00,,OVC044,0.00,VWS V14.00,2013-01-26 09:10:00,
2013-01-26 04:15:00,19.7,17.5,30.15,West,275,0.0,2.0,91,0.00,,OVC044,0.00,VWS V14.00,2013-01-26 09:15:00,
2013-01-26 04:20:00,19.8,17.6,30.15,WNW,294,0.0,3.0,91,0.00,,OVC044,0.00,VWS V14.00,2013-01-26 09:20:00,
2013-01-26 04:25:00,19.9,17.7,30.15,WNW,294,0.0,3.0,91,0.00,,OVC044,0.00,VWS V14.00,2013-01-26 09:25:00,
2013-01-26 04:30:00,19.9,17.7,30.15,NE,38,0.0,0.0,91,0.00,,OVC044,0.00,VWS V14.00,2013-01-26 09:30:00,
2013-01-26 04:35:00,19.9,17.7,30.15,NE,38,0.0,0.0,91,0.00,,OVC044,0.00,VWS V14.00,2013-01-26 09:35:00,
2013-01-26 04:41:00,19.9,17.7,30.16,West,266,0.0,4.0,91,0.00,,OVC044,0.00,VWS V14.00,2013-01-26 09:41:00,
2013-01-26 04:46:00,19.9,17.7,30.16,West,266,0.0,4.0,91,0.00,,OVC044,0.00,VWS V14.00,2013-01-26 09:46:00,
2013-01-26 04:51:00,19.9,17.7,30.15,West,265,0.0,4.0,91,0.00,,OVC044,0.00,VWS V14.00,2013-01-26 09:51:00,
2013-01-26 04:56:00,19.9,17.5,30.16,West,265,0.0,4.0,90,0.00,,OVC044,0.00,VWS V14.00,2013-01-26 09:56:00,
2013-01-26 05:01:00,19.9,17.5,30.16,West,265,1.0,2.0,90,0.00,,OVC033,0.00,VWS V14.00,2013-01-26 10:01:00,
2013-01-26 05:06:00,19.9,17.5,30.16,West,265,0.0,2.0,90,0.00,,OVC033,0.00,VWS V14.00,2013-01-26 10:06:00,
2013-01-26 05:11:00,19.9,17.5,30.16,WSW,253,0.0,5.0,90,0.00,,OVC033,0.00,VWS V14.00,2013-01-26 10:11:00,
2013-01-26 05:16:00,20.0,17.5,30.17,NE,40,0.0,7.0,90,0.00,,OVC033,0.00,VWS V14.00,2013-01-26 10:16:00,
2013-01-26 05:21:00,20.0,17.5,30.17,ENE,63,1.0,7.0,90,0.00,,OVC033,0.00,VWS V14.00,2013-01-26 10:21:00,
2013-01-26 05:26:00,20.0,17.3,30.17,East,89,1.0,7.0,89,0.00,,OVC033,0.00,VWS V14.00,2013-01-26 10:26:00,
2013-01-26 05:31:00,20.0,17.3,30.17,East,89,0.0,2.0,89,0.00,,OVC033,0.00,VWS V14.00,2013-01-26 10:31:00,
2013-01-26 05:36:00,20.0,17.3,30.18,NE,40,1.0,5.0,89,0.00,,OVC033,0.00,VWS V14.00,2013-01-26 10:36:00,
2013-01-26 05:41:00,20.0,17.3,30.18,SSE,156,2.0,6.0,89,0.00,,OVC033,0.00,VWS V14.00,2013-01-26 10:41:00,
2013-01-26 05:46:00,20.0,17.3,30.18,SSW,196,0.0,6.0,89,0.00,,OVC033,0.00,VWS V14.00,2013-01-26 10:46:00,
2013-01-26 05:51:00,19.9,17.2,30.18,ESE,113,0.0,6.0,89,0.00,,OVC033,0.00,VWS V14.00,2013-01-26 10:51:00,
2013-01-26 05:56:00,20.0,17.3,30.18,ENE,57,1.0,6.0,89,0.00,,OVC033,0.00,VWS V14.00,2013-01-26 10:56:00,
2013-01-26 06:01:00,20.0,17.3,30.18,North,360,1.0,2.0,89,0.00,,,0.00,VWS V14.00,2013-01-26 11:01:00,
2013-01-26 06:06:00,19.9,16.9,30.19,West,269,1.0,3.0,88,0.00,,,0.00,VWS V14.00,2013-01-26 11:06:00,
2013-01-26 06:11:00,19.9,16.9,30.19,ENE,66,1.0,3.0,88,0.00,,,0.00,VWS V14.00,2013-01-26 11:11:00,
2013-01-26 06:16:00,19.9,16.9,30.19,WSW,242,0.0,5.0,88,0.00,,,0.00,VWS V14.00,2013-01-26 11:16:00,
2013-01-26 06:21:00,19.8,16.8,30.19,WSW,242,0.0,5.0,88,0.00,,,0.00,VWS V14.00,2013-01-26 11:21:00,
2013-01-26 06:26:00,19.7,16.7,30.19,WSW,242,0.0,5.0,88,0.00,,,0.00,VWS V14.00,2013-01-26 11:26:00,
2013-01-26 06:31:00,19.7,16.7,30.19,NNE,33,0.0,4.0,88,0.00,,,0.00,VWS V14.00,2013-01-26 11:31:00,
2013-01-26 06:37:00,19.7,16.7,30.20,NE,34,0.0,4.0,88,0.00,,,0.00,VWS V14.00,2013-01-26 11:37:00,
2013-01-26 06:42:00,19.7,16.7,30.20,SE,136,1.0,4.0,88,0.00,,,0.00,VWS V14.00,2013-01-26 11:42:00,
2013-01-26 06:47:00,19.7,16.7,30.20,SE,136,0.0,4.0,88,0.00,,,0.00,VWS V14.00,2013-01-26 11:47:00,
2013-01-26 06:52:00,19.7,16.7,30.20,South,173,0.0,4.0,88,0.00,,,0.00,VWS V14.00,2013-01-26 11:52:00,
2013-01-26 06:57:00,19.7,16.7,30.20,SSE,167,0.0,4.0,88,0.00,,,0.00,VWS V14.00,2013-01-26 11:57:00,
2013-01-26 07:02:00,19.7,16.7,30.20,SSE,167,0.0,1.0,88,0.00,,,0.00,VWS V14.00,2013-01-26 12:02:00,
2013-01-26 07:07:00,19.7,16.7,30.21,West,279,0.0,3.0,88,0.00,,,0.00,VWS V14.00,2013-01-26 12:07:00,
2013-01-26 07:12:00,19.7,16.7,30.21,WSW,257,0.0,3.0,88,0.00,,,0.00,VWS V14.00,2013-01-26 12:12:00,
2013-01-26 07:17:00,19.7,16.7,30.21,WSW,257,0.0,3.0,88,0.00,,,0.00,VWS V14.00,2013-01-26 12:17:00,
2013-01-26 07:22:00,19.7,16.7,30.22,WSW,257,0.0,3.0,88,0.00,,,0.00,VWS V14.00,2013-01-26 12:22:00,
2013-01-26 07:27:00,19.7,16.7,30.22,WSW,257,0.0,3.0,88,0.00,,,0.00,VWS V14.00,2013-01-26 12:27:00,
2013-01-26 07:32:00,19.7,17.0,30.22,WSW,257,0.0,0.0,89,0.00,,,0.00,VWS V14.00,2013-01-26 12:32:00,
2013-01-26 07:37:00,19.7,17.0,30.22,WSW,257,0.0,1.0,89,0.00,,,0.00,VWS V14.00,2013-01-26 12:37:00,
2013-01-26 07:42:00,19.6,16.9,30.22,WSW,257,0.0,1.0,89,0.00,,,0.00,VWS V14.00,2013-01-26 12:42:00,
2013-01-26 07:47:00,19.6,16.9,30.23,WSW,257,0.0,1.0,89,0.00,,,0.00,VWS V14.00,2013-01-26 12:47:00,
2013-01-26 07:52:00,19.5,16.8,30.23,WSW,257,0.0,1.0,89,0.00,,,0.00,VWS V14.00,2013-01-26 12:52:00,
2013-01-26 07:57:00,19.5,16.8,30.23,WSW,257,0.0,3.0,89,0.00,,,0.00,VWS V14.00,2013-01-26 12:57:00,
2013-01-26 08:02:00,19.6,16.9,30.23,WSW,257,0.0,2.0,89,0.00,,OVC039,0.00,VWS V14.00,2013-01-26 13:02:00,
2013-01-26 08:07:00,19.6,16.9,30.23,WSW,257,0.0,2.0,89,0.00,,OVC039,0.00,VWS V14.00,2013-01-26 13:07:00,
2013-01-26 08:12:00,19.6,16.9,30.23,WSW,257,0.0,2.0,89,0.00,,OVC039,0.00,VWS V14.00,2013-01-26 13:12:00,
2013-01-26 08:17:00,19.6,16.9,30.24,WSW,257,0.0,2.0,89,0.00,,OVC039,0.00,VWS V14.00,2013-01-26 13:17:00,
2013-01-26 08:23:00,19.6,16.9,30.24,WSW,257,0.0,2.0,89,0.00,,OVC039,0.00,VWS V14.00,2013-01-26 13:23:00,
2013-01-26 08:28:00,19.6,16.9,30.24,WSW,257,0.0,2.0,89,0.00,,OVC039,0.00,VWS V14.00,2013-01-26 13:28:00,
2013-01-26 08:33:00,19.7,17.0,30.24,WSW,257,0.0,1.0,89,0.00,,OVC039,0.00,VWS V14.00,2013-01-26 13:33:00,
2013-01-26 08:38:00,19.7,17.0,30.24,WSW,257,0.0,1.0,89,0.00,,OVC039,0.00,VWS V14.00,2013-01-26 13:38:00,
2013-01-26 08:43:00,19.7,17.0,30.24,WSW,257,0.0,1.0,89,0.00,,OVC039,0.00,VWS V14.00,2013-01-26 13:43:00,
2013-01-26 08:48:00,19.7,17.0,30.25,West,260,0.0,3.0,89,0.00,,OVC039,0.00,VWS V14.00,2013-01-26 13:48:00,
2013-01-26 08:53:00,19.7,17.0,30.24,WNW,284,0.0,4.0,89,0.00,,OVC039,0.00,VWS V14.00,2013-01-26 13:53:00,
2013-01-26 08:58:00,19.8,17.1,30.25,WNW,284,1.0,4.0,89,0.00,,OVC039,0.00,VWS V14.00,2013-01-26 13:58:00,
2013-01-26 09:03:00,20.2,17.5,30.25,WNW,284,0.0,0.0,89,0.00,,OVC041,0.00,VWS V14.00,2013-01-26 14:03:00,
2013-01-26 09:08:00,20.6,17.9,30.25,WSW,250,0.0,7.0,89,0.00,,OVC041,0.00,VWS V14.00,2013-01-26 14:08:00,
2013-01-26 09:13:00,20.8,17.8,30.25,WSW,254,1.0,7.0,88,0.00,,OVC041,0.00,VWS V14.00,2013-01-26 14:13:00,
2013-01-26 09:18:00,20.9,17.9,30.25,WSW,254,0.0,7.0,88,0.00,,OVC041,0.00,VWS V14.00,2013-01-26 14:18:00,
2013-01-26 09:23:00,21.2,17.9,30.25,WSW,257,0.0,7.0,87,0.00,,OVC041,0.00,VWS V14.00,2013-01-26 14:23:00,
2013-01-26 09:28:00,21.3,18.0,30.26,West,267,0.0,7.0,87,0.00,,OVC041,0.00,VWS V14.00,2013-01-26 14:28:00,
2013-01-26 09:33:00,21.6,18.3,30.27,West,267,3.0,3.0,87,0.00,,OVC041,0.00,VWS V14.00,2013-01-26 14:33:00,
2013-01-26 09:38:00,21.8,18.3,30.27,NNE,14,0.0,4.0,86,0.00,,OVC041,0.00,VWS V14.00,2013-01-26 14:38:00,
2013-01-26 09:43:00,22.3,18.8,30.27,NNE,15,0.0,4.0,86,0.00,,OVC041,0.00,VWS V14.00,2013-01-26 14:43:00,
2013-01-26 09:48:00,22.6,18.8,30.27,NW,325,0.0,5.0,85,0.00,,OVC041,0.00,VWS V14.00,2013-01-26 14:48:00,
2013-01-26 09:53:00,22.8,18.7,30.28,WSW,251,0.0,6.0,84,0.00,,OVC041,0.00,VWS V14.00,2013-01-26 14:53:00,
2013-01-26 09:58:00,22.9,18.8,30.28,WSW,251,0.0,6.0,84,0.00,,OVC041,0.00,VWS V14.00,2013-01-26 14:58:00,
2013-01-26 10:03:00,23.0,18.6,30.28,WSW,254,1.0,1.0,83,0.00,,BKN041,0.00,VWS V14.00,2013-01-26 15:03:00,
2013-01-26 10:08:00,23.2,18.8,30.28,WSW,254,0.0,4.0,83,0.00,,BKN041,0.00,VWS V14.00,2013-01-26 15:08:00,
2013-01-26 10:14:00,23.3,18.9,30.29,WSW,257,2.0,4.0,83,0.00,,BKN041,0.00,VWS V14.00,2013-01-26 15:14:00,
2013-01-26 10:19:00,23.4,18.7,30.29,West,263,0.0,6.0,82,0.00,,BKN041,0.00,VWS V14.00,2013-01-26 15:19:00,
2013-01-26 10:24:00,23.6,18.6,30.29,West,274,1.0,6.0,81,0.00,,BKN041,0.00,VWS V14.00,2013-01-26 15:24:00,
2013-01-26 10:29:00,23.8,18.8,30.30,SW,227,1.0,6.0,81,0.00,,BKN041,0.00,VWS V14.00,2013-01-26 15:29:00,
2013-01-26 10:34:00,23.9,18.6,30.30,SSW,193,1.0,5.0,80,0.00,,BKN041,0.00,VWS V14.00,2013-01-26 15:34:00,
2013-01-26 10:39:00,24.0,18.7,30.30,WSW,250,0.0,5.0,80,0.00,,BKN041,0.00,VWS V14.00,2013-01-26 15:39:00,
2013-01-26 10:44:00,24.2,18.6,30.30,NW,311,1.0,5.0,79,0.00,,BKN041,0.00,VWS V14.00,2013-01-26 15:44:00,
2013-01-26 10:49:00,24.3,18.4,30.30,SW,230,0.0,7.0,78,0.00,,BKN041,0.00,VWS V14.00,2013-01-26 15:49:00,
2013-01-26 10:54:00,24.5,18.6,30.31,NW,308,0.0,8.0,78,0.00,,BKN041,0.00,VWS V14.00,2013-01-26 15:54:00,
2013-01-26 10:59:00,24.8,18.6,30.30,WSW,252,2.0,8.0,77,0.00,,BKN041,0.00,VWS V14.00,2013-01-26 15:59:00,
2013-01-26 11:04:00,25.2,18.7,30.31,NW,311,0.0,4.0,76,0.00,,BKN220,0.00,VWS V14.00,2013-01-26 16:04:00,
2013-01-26 11:09:00,25.7,19.2,30.31,NW,313,2.0,6.0,76,0.00,,BKN220,0.00,VWS V14.00,2013-01-26 16:09:00,
2013-01-26 11:15:00,26.1,19.3,30.31,WSW,244,0.0,6.0,75,0.00,,BKN220,0.00,VWS V14.00,2013-01-26 16:15:00,
2013-01-26 11:20:00,26.3,19.1,30.31,NNW,337,0.0,6.0,74,0.00,,BKN220,0.00,VWS V14.00,2013-01-26 16:20:00,
2013-01-26 11:25:00,26.5,19.0,30.31,SSE,163,1.0,6.0,73,0.00,,BKN220,0.00,VWS V14.00,2013-01-26 16:25:00,
2013-01-26 11:30:00,26.3,18.2,30.32,SW,223,0.0,6.0,71,0.00,,BKN220,0.00,VWS V14.00,2013-01-26 16:30:00,
2013-01-26 11:35:00,26.3,18.5,30.32,WSW,253,0.0,5.0,72,0.00,,BKN220,0.00,VWS V14.00,2013-01-26 16:35:00,
2013-01-26 11:40:00,26.3,18.2,30.32,West,281,0.0,6.0,71,0.00,,BKN220,0.00,VWS V14.00,2013-01-26 16:40:00,
2013-01-26 11:45:00,26.4,18.6,30.32,NW,318,2.0,6.0,72,0.00,,BKN220,0.00,VWS V14.00,2013-01-26 16:45:00,
2013-01-26 11:50:00,27.0,18.9,30.32,NNE,14,0.0,6.0,71,0.00,,BKN220,0.00,VWS V14.00,2013-01-26 16:50:00,
2013-01-26 11:55:00,27.2,18.7,30.31,ENE,61,0.0,6.0,70,0.00,,BKN220,0.00,VWS V14.00,2013-01-26 16:55:00,
2013-01-26 12:00:00,27.8,19.3,30.31,NNW,346,0.0,0.0,70,0.00,,BKN220,0.00,VWS V14.00,2013-01-26 17:00:00,
2013-01-26 12:05:00,28.4,19.5,30.31,WSW,238,0.0,6.0,69,0.00,,BKN220,0.00,VWS V14.00,2013-01-26 17:05:00,
2013-01-26 12:10:00,28.7,19.5,30.31,NNE,12,0.0,6.0,68,0.00,,BKN220,0.00,VWS V14.00,2013-01-26 17:10:00,
2013-01-26 12:15:00,28.4,19.2,30.32,NNE,22,2.0,6.0,68,0.00,,BKN220,0.00,VWS V14.00,2013-01-26 17:15:00,
2013-01-26 12:20:00,28.2,19.4,30.32,WSW,240,0.0,6.0,69,0.00,,BKN220,0.01,VWS V14.00,2013-01-26 17:20:00,
2013-01-26 12:25:00,28.2,18.7,30.31,NNE,31,3.0,7.0,67,0.00,,BKN220,0.01,VWS V14.00,2013-01-26 17:25:00,
2013-01-26 12:30:00,28.0,19.2,30.32,West,267,0.0,2.0,69,0.00,,BKN220,0.01,VWS V14.00,2013-01-26 17:30:00,
2013-01-26 12:36:00,28.0,18.8,30.32,WSW,242,1.0,6.0,68,0.00,,BKN220,0.01,VWS V14.00,2013-01-26 17:36:00,
2013-01-26 12:41:00,28.0,18.5,30.32,WSW,244,0.0,6.0,67,0.00,,BKN220,0.01,VWS V14.00,2013-01-26 17:41:00,
2013-01-26 12:46:00,27.8,17.9,30.32,West,281,4.0,7.0,66,0.00,,BKN220,0.01,VWS V14.00,2013-01-26 17:46:00,
2013-01-26 12:51:00,27.8,17.9,30.31,West,273,0.0,7.0,66,0.00,,BKN220,0.02,VWS V14.00,2013-01-26 17:51:00,
2013-01-26 12:56:00,27.9,18.4,30.32,WNW,284,0.0,7.0,67,0.00,,BKN220,0.02,VWS V14.00,2013-01-26 17:56:00,
2013-01-26 13:01:00,28.4,18.9,30.32,WSW,254,3.0,4.0,67,0.00,,BKN220,0.02,VWS V14.00,2013-01-26 18:01:00,
2013-01-26 13:06:00,29.0,19.4,30.32,WSW,255,0.0,4.0,67,0.00,,BKN220,0.02,VWS V14.00,2013-01-26 18:06:00,
2013-01-26 13:11:00,29.8,19.8,30.31,West,268,0.0,4.0,66,0.00,,BKN220,0.03,VWS V14.00,2013-01-26 18:11:00,
2013-01-26 13:16:00,30.0,19.3,30.31,North,355,2.0,6.0,64,0.00,,BKN220,0.03,VWS V14.00,2013-01-26 18:16:00,
2013-01-26 13:21:00,29.8,18.8,30.32,West,277,2.0,6.0,63,0.00,,BKN220,0.03,VWS V14.00,2013-01-26 18:21:00,
2013-01-26 13:26:00,29.8,19.1,30.31,WSW,246,4.0,6.0,64,0.00,,BKN220,0.04,VWS V14.00,2013-01-26 18:26:00,
2013-01-26 13:31:00,30.0,19.7,30.31,NE,53,2.0,4.0,65,0.00,,BKN220,0.04,VWS V14.00,2013-01-26 18:31:00,
2013-01-26 13:36:00,29.9,18.9,30.31,NE,36,5.0,7.0,63,0.00,,BKN220,0.04,VWS V14.00,2013-01-26 18:36:00,
2013-01-26 13:41:00,29.4,19.1,30.32,North,9,1.0,9.0,65,0.00,,BKN220,0.04,VWS V14.00,2013-01-26 18:41:00,
2013-01-26 13:46:00,29.7,19.4,30.32,ENE,75,1.0,9.0,65,0.00,,BKN220,0.05,VWS V14.00,2013-01-26 18:46:00,
2013-01-26 13:51:00,30.1,19.8,30.32,ENE,65,0.0,9.0,65,0.00,,BKN220,0.05,VWS V14.00,2013-01-26 18:51:00,
2013-01-26 13:56:00,30.3,19.6,30.32,ENE,65,2.0,9.0,64,0.00,,BKN220,0.05,VWS V14.00,2013-01-26 18:56:00,
2013-01-26 14:01:00,30.3,19.6,30.32,NNW,335,2.0,4.0,64,0.00,,BKN220,0.05,VWS V14.00,2013-01-26 19:01:00,
2013-01-26 14:06:00,29.8,19.1,30.32,WSW,244,1.0,5.0,64,0.00,,BKN220,0.05,VWS V14.00,2013-01-26 19:06:00,
2013-01-26 14:11:00,29.5,18.8,30.32,NNE,30,0.0,5.0,64,0.00,,BKN220,0.05,VWS V14.00,2013-01-26 19:11:00,
2013-01-26 14:16:00,29.6,19.6,30.32,NNE,13,0.0,5.0,66,0.00,,BKN220,0.05,VWS V14.00,2013-01-26 19:16:00,
2013-01-26 14:21:00,30.4,20.1,30.32,NNW,330,2.0,11.0,65,0.00,,BKN220,0.05,VWS V14.00,2013-01-26 19:21:00,
2013-01-26 14:26:00,29.7,18.7,30.32,NW,307,0.0,11.0,63,0.00,,BKN220,0.06,VWS V14.00,2013-01-26 19:26:00,
2013-01-26 14:32:00,29.1,18.8,30.32,North,360,0.0,0.0,65,0.00,,BKN220,0.06,VWS V14.00,2013-01-26 19:32:00,
2013-01-26 14:37:00,29.3,18.6,30.31,ENE,72,0.0,4.0,64,0.00,,BKN220,0.06,VWS V14.00,2013-01-26 19:37:00,
2013-01-26 14:42:00,29.2,18.9,30.31,North,5,1.0,5.0,65,0.00,,BKN220,0.06,VWS V14.00,2013-01-26 19:42:00,
2013-01-26 14:47:00,29.0,18.4,30.32,NNE,31,0.0,6.0,64,0.00,,BKN220,0.06,VWS V14.00,2013-01-26 19:47:00,
2013-01-26 14:52:00,28.8,18.5,30.32,NNE,13,1.0,6.0,65,0.00,,BKN220,0.06,VWS V14.00,2013-01-26 19:52:00,
2013-01-26 14:57:00,29.0,19.1,30.32,NE,46,1.0,6.0,66,0.00,,BKN220,0.06,VWS V14.00,2013-01-26 19:57:00,
2013-01-26 15:02:00,29.1,18.5,30.32,SW,234,1.0,6.0,64,0.00,,BKN220,0.06,VWS V14.00,2013-01-26 20:02:00,
2013-01-26 15:07:00,29.2,18.5,30.32,West,265,0.0,6.0,64,0.00,,BKN220,0.06,VWS V14.00,2013-01-26 20:07:00,
2013-01-26 15:12:00,29.3,19.0,30.32,WNW,284,0.0,6.0,65,0.00,,BKN220,0.06,VWS V14.00,2013-01-26 20:12:00,
2013-01-26 15:17:00,29.4,18.7,30.33,East,94,0.0,6.0,64,0.00,,BKN220,0.06,VWS V14.00,2013-01-26 20:17:00,
2013-01-26 15:22:00,29.2,18.9,30.33,ENE,71,1.0,6.0,65,0.00,,BKN220,0.06,VWS V14.00,2013-01-26 20:22:00,
2013-01-26 15:27:00,29.0,18.7,30.33,SSE,168,0.0,6.0,65,0.00,,BKN220,0.06,VWS V14.00,2013-01-26 20:27:00,
2013-01-26 15:32:00,28.8,18.5,30.33,WNW,284,0.0,3.0,65,0.00,,BKN220,0.07,VWS V14.00,2013-01-26 20:32:00,
2013-01-26 15:37:00,28.8,18.9,30.33,WNW,285,0.0,3.0,66,0.00,,BKN220,0.07,VWS V14.00,2013-01-26 20:37:00,
2013-01-26 15:42:00,28.9,19.0,30.33,SW,224,0.0,3.0,66,0.00,,BKN220,0.07,VWS V14.00,2013-01-26 20:42:00,
2013-01-26 15:47:00,28.8,18.5,30.33,NNW,334,0.0,3.0,65,0.00,,BKN220,0.07,VWS V14.00,2013-01-26 20:47:00,
2013-01-26 15:52:00,28.8,18.9,30.33,NNW,333,0.0,3.0,66,0.00,,BKN220,0.07,VWS V14.00,2013-01-26 20:52:00,
2013-01-26 15:58:00,28.8,18.9,30.34,NW,315,0.0,4.0,66,0.00,,BKN220,0.07,VWS V14.00,2013-01-26 20:58:00,
2013-01-26 16:03:00,28.6,19.0,30.34,WNW,295,3.0,3.0,67,0.00,,BKN220,0.07,VWS V14.00,2013-01-26 21:03:00,
2013-01-26 16:08:00,28.3,18.8,30.34,WSW,245,4.0,6.0,67,0.00,,BKN220,0.07,VWS V14.00,2013-01-26 21:08:00,
2013-01-26 16:13:00,28.1,18.9,30.35,WSW,246,0.0,6.0,68,0.00,,BKN220,0.07,VWS V14.00,2013-01-26 21:13:00,
2013-01-26 16:18:00,28.0,18.8,30.35,WSW,250,1.0,6.0,68,0.00,,BKN220,0.07,VWS V14.00,2013-01-26 21:18:00,
2013-01-26 16:23:00,28.0,18.8,30.35,WSW,250,0.0,6.0,68,0.00,,BKN220,0.07,VWS V14.00,2013-01-26 21:23:00,
2013-01-26 16:28:00,28.0,19.2,30.36,WSW,250,0.0,6.0,69,0.00,,BKN220,0.07,VWS V14.00,2013-01-26 21:28:00,
2013-01-26 16:33:00,28.0,19.2,30.36,WSW,250,0.0,2.0,69,0.00,,BKN220,0.07,VWS V14.00,2013-01-26 21:33:00,
2013-01-26 16:38:00,27.9,19.1,30.36,WSW,250,1.0,3.0,69,0.00,,BKN220,0.07,VWS V14.00,2013-01-26 21:38:00,
2013-01-26 16:43:00,27.8,19.0,30.36,WSW,250,0.0,3.0,69,0.00,,BKN220,0.07,VWS V14.00,2013-01-26 21:43:00,
2013-01-26 16:48:00,27.8,19.3,30.36,WSW,250,0.0,3.0,70,0.00,,BKN220,0.07,VWS V14.00,2013-01-26 21:48:00,
2013-01-26 16:53:00,27.8,19.3,30.36,WSW,250,0.0,3.0,70,0.00,,BKN220,0.07,VWS V14.00,2013-01-26 21:53:00,
2013-01-26 16:58:00,27.8,19.0,30.36,WSW,250,0.0,3.0,69,0.00,,BKN220,0.07,VWS V14.00,2013-01-26 21:58:00,
2013-01-26 17:03:00,27.7,19.2,30.36,WSW,250,0.0,2.0,70,0.00,,BKN032,0.07,VWS V14.00,2013-01-26 22:03:00,
2013-01-26 17:08:00,27.6,19.1,30.36,WSW,252,0.0,2.0,70,0.00,,BKN032,0.07,VWS V14.00,2013-01-26 22:08:00,
2013-01-26 17:13:00,27.5,19.0,30.36,WSW,252,0.0,2.0,70,0.00,,BKN032,0.07,VWS V14.00,2013-01-26 22:13:00,
2013-01-26 17:18:00,27.5,19.4,30.37,WSW,252,0.0,2.0,71,0.00,,BKN032,0.07,VWS V14.00,2013-01-26 22:18:00,
2013-01-26 17:23:00,27.5,19.4,30.37,WSW,252,1.0,2.0,71,0.00,,BKN032,0.07,VWS V14.00,2013-01-26 22:23:00,
2013-01-26 17:28:00,27.4,19.2,30.37,WSW,252,0.0,2.0,71,0.00,,BKN032,0.07,VWS V14.00,2013-01-26 22:28:00,
2013-01-26 17:33:00,27.4,19.6,30.37,WSW,252,0.0,1.0,72,0.00,,BKN032,0.07,VWS V14.00,2013-01-26 22:33:00,
2013-01-26 17:39:00,27.3,19.5,30.37,WSW,252,0.0,2.0,72,0.00,,BKN032,0.07,VWS V14.00,2013-01-26 22:39:00,
2013-01-26 17:44:00,27.2,19.4,30.37,WSW,252,0.0,2.0,72,0.00,,BKN032,0.07,VWS V14.00,2013-01-26 22:44:00,
2013-01-26 17:49:00,27.2,19.7,30.38,WSW,252,0.0,2.0,73,0.00,,BKN032,0.07,VWS V14.00,2013-01-26 22:49:00,
2013-01-26 17:54:00,27.1,19.9,30.38,WSW,252,0.0,2.0,74,0.00,,BKN032,0.07,VWS V14.00,2013-01-26 22:54:00,
2013-01-26 17:59:00,27.0,19.8,30.38,WSW,252,0.0,2.0,74,0.00,,BKN032,0.07,VWS V14.00,2013-01-26 22:59:00,
2013-01-26 18:04:00,26.9,20.0,30.38,WSW,252,0.0,1.0,75,0.00,,OVC035,0.07,VWS V14.00,2013-01-26 23:04:00,
2013-01-26 18:09:00,26.7,20.2,30.38,WSW,252,0.0,2.0,76,0.00,,OVC035,0.07,VWS V14.00,2013-01-26 23:09:00,
2013-01-26 18:14:00,26.6,20.1,30.38,WSW,252,0.0,2.0,76,0.00,,OVC035,0.07,VWS V14.00,2013-01-26 23:14:00,
2013-01-26 18:19:00,26.5,20.0,30.38,WSW,252,0.0,2.0,76,0.00,,OVC035,0.07,VWS V14.00,2013-01-26 23:19:00,
2013-01-26 18:24:00,26.5,20.3,30.38,WSW,252,0.0,2.0,77,0.00,,OVC035,0.07,VWS V14.00,2013-01-26 23:24:00,
2013-01-26 18:29:00,26.4,20.2,30.38,WSW,252,0.0,2.0,77,0.00,,OVC035,0.07,VWS V14.00,2013-01-26 23:29:00,
2013-01-26 18:34:00,26.3,20.4,30.38,WSW,252,0.0,0.0,78,0.00,,OVC035,0.07,VWS V14.00,2013-01-26 23:34:00,
2013-01-26 18:39:00,26.2,20.3,30.38,WSW,252,0.0,0.0,78,0.00,,OVC035,0.07,VWS V14.00,2013-01-26 23:39:00,
2013-01-26 18:44:00,26.0,20.4,30.38,WSW,252,0.0,0.0,79,0.00,,OVC035,0.07,VWS V14.00,2013-01-26 23:44:00,
2013-01-26 18:49:00,25.9,20.3,30.38,WSW,252,0.0,0.0,79,0.00,,OVC035,0.07,VWS V14.00,2013-01-26 23:49:00,
2013-01-26 18:54:00,25.8,20.2,30.38,WSW,252,0.0,0.0,79,0.00,,OVC035,0.07,VWS V14.00,2013-01-26 23:54:00,
2013-01-26 18:59:00,25.6,20.3,30.38,WSW,252,0.0,0.0,80,0.00,,OVC035,0.07,VWS V14.00,2013-01-26 23:59:00,
2013-01-26 19:04:00,25.4,20.1,30.38,WSW,252,0.0,0.0,80,0.00,,OVC250,0.07,VWS V14.00,2013-01-27 00:04:00,
2013-01-26 19:09:00,25.2,20.2,30.38,WSW,252,0.0,0.0,81,0.00,,OVC250,0.07,VWS V14.00,2013-01-27 00:09:00,
2013-01-26 19:14:00,25.0,20.0,30.38,WSW,252,0.0,0.0,81,0.00,,OVC250,0.07,VWS V14.00,2013-01-27 00:14:00,
2013-01-26 19:19:00,24.7,20.0,30.39,WSW,252,0.0,1.0,82,0.00,,OVC250,0.07,VWS V14.00,2013-01-27 00:19:00,
2013-01-26 19:24:00,24.4,19.7,30.38,WSW,252,0.0,1.0,82,0.00,,OVC250,0.07,VWS V14.00,2013-01-27 00:24:00,
2013-01-26 19:29:00,24.1,19.4,30.39,WSW,252,0.0,1.0,82,0.00,,OVC250,0.07,VWS V14.00,2013-01-27 00:29:00,
2013-01-26 19:34:00,23.9,19.2,30.39,WSW,252,0.0,0.0,82,0.00,,OVC037,0.07,VWS V14.00,2013-01-27 00:34:00,
2013-01-26 19:40:00,23.6,18.9,30.39,WSW,252,0.0,0.0,82,0.00,,OVC037,0.07,VWS V14.00,2013-01-27 00:40:00,
2013-01-26 19:45:00,23.5,19.1,30.39,WSW,252,0.0,0.0,83,0.00,,OVC037,0.07,VWS V14.00,2013-01-27 00:45:00,
2013-01-26 19:50:00,23.3,19.2,30.39,WSW,252,0.0,0.0,84,0.00,,OVC037,0.07,VWS V14.00,2013-01-27 00:50:00,
2013-01-26 19:55:00,23.1,19.0,30.39,WSW,252,0.0,0.0,84,0.00,,OVC037,0.07,VWS V14.00,2013-01-27 00:55:00,
2013-01-26 20:00:00,22.9,18.8,30.39,WSW,252,0.0,0.0,84,0.00,,OVC037,0.07,VWS V14.00,2013-01-27 01:00:00,
2013-01-26 20:05:00,22.7,18.9,30.39,WSW,252,0.0,0.0,85,0.00,,OVC037,0.07,VWS V14.00,2013-01-27 01:05:00,
2013-01-26 20:10:00,22.5,18.7,30.39,WSW,252,0.0,0.0,85,0.00,,OVC037,0.07,VWS V14.00,2013-01-27 01:10:00,
2013-01-26 20:15:00,22.4,18.9,30.39,WSW,252,0.0,0.0,86,0.00,,OVC037,0.07,VWS V14.00,2013-01-27 01:15:00,
2013-01-26 20:20:00,22.3,19.0,30.39,WSW,252,0.0,0.0,87,0.00,,OVC037,0.07,VWS V14.00,2013-01-27 01:20:00,
2013-01-26 20:25:00,22.1,18.8,30.39,WSW,252,0.0,0.0,87,0.00,,OVC037,0.07,VWS V14.00,2013-01-27 01:25:00,
2013-01-26 20:30:00,21.9,18.6,30.39,WSW,252,0.0,0.0,87,0.00,,OVC037,0.07,VWS V14.00,2013-01-27 01:30:00,
2013-01-26 20:35:00,21.9,18.6,30.38,WSW,252,0.0,0.0,87,0.00,,OVC037,0.07,VWS V14.00,2013-01-27 01:35:00,
2013-01-26 20:40:00,21.7,18.7,30.38,WSW,252,0.0,0.0,88,0.00,,OVC037,0.07,VWS V14.00,2013-01-27 01:40:00,
2013-01-26 20:45:00,21.5,18.5,30.38,WSW,252,0.0,0.0,88,0.00,,OVC037,0.07,VWS V14.00,2013-01-27 01:45:00,
2013-01-26 20:50:00,21.3,18.3,30.38,WSW,252,0.0,0.0,88,0.00,,OVC037,0.07,VWS V14.00,2013-01-27 01:50:00,
2013-01-26 20:55:00,21.3,18.6,30.38,WSW,252,0.0,0.0,89,0.00,,OVC037,0.07,VWS V14.00,2013-01-27 01:55:00,
2013-01-26 21:00:00,21.2,18.5,30.38,WSW,252,0.0,0.0,89,0.00,,OVC035,0.07,VWS V14.00,2013-01-27 02:00:00,
2013-01-26 21:05:00,21.1,18.4,30.39,WSW,252,0.0,0.0,89,0.00,,OVC035,0.07,VWS V14.00,2013-01-27 02:05:00,
2013-01-26 21:10:00,20.8,18.1,30.39,WSW,252,0.0,0.0,89,0.00,,OVC035,0.07,VWS V14.00,2013-01-27 02:10:00,
2013-01-26 21:15:00,20.7,18.0,30.38,WSW,252,0.0,0.0,89,0.00,,OVC035,0.07,VWS V14.00,2013-01-27 02:15:00,
2013-01-26 21:20:00,20.6,18.1,30.39,WSW,252,0.0,0.0,90,0.00,,OVC035,0.07,VWS V14.00,2013-01-27 02:20:00,
2013-01-26 21:25:00,20.5,18.0,30.39,WSW,252,0.0,0.0,90,0.00,,OVC035,0.07,VWS V14.00,2013-01-27 02:25:00,
2013-01-26 21:30:00,20.4,17.9,30.40,WSW,252,0.0,0.0,90,0.00,,OVC035,0.07,VWS V14.00,2013-01-27 02:30:00,
2013-01-26 21:35:00,20.3,17.8,30.40,WSW,252,0.0,0.0,90,0.00,,OVC035,0.07,VWS V14.00,2013-01-27 02:35:00,
2013-01-26 21:40:00,20.2,17.7,30.40,WSW,252,0.0,0.0,90,0.00,,OVC035,0.07,VWS V14.00,2013-01-27 02:40:00,
2013-01-26 21:45:00,20.0,17.8,30.40,WSW,252,0.0,0.0,91,0.00,,OVC035,0.07,VWS V14.00,2013-01-27 02:45:00,
2013-01-26 21:51:00,20.2,18.0,30.40,WSW,252,0.0,0.0,91,0.00,,OVC035,0.07,VWS V14.00,2013-01-27 02:51:00,
2013-01-26 21:56:00,20.2,18.0,30.40,WSW,252,0.0,0.0,91,0.00,,OVC035,0.07,VWS V14.00,2013-01-27 02:56:00,
2013-01-26 22:00:00,20.2,18.0,30.40,WSW,252,0.0,0.0,91,0.00,,OVC035,0.07,VWS V14.00,2013-01-27 03:00:00,
2013-01-26 22:05:00,20.0,17.8,30.40,WSW,252,0.0,0.0,91,0.00,,OVC035,0.07,VWS V14.00,2013-01-27 03:05:00,
2013-01-26 22:11:00,20.0,17.8,30.40,WSW,252,0.0,0.0,91,0.00,,OVC035,0.07,VWS V14.00,2013-01-27 03:11:00,
2013-01-26 22:16:00,20.3,18.4,30.40,WSW,252,0.0,0.0,92,0.00,,OVC035,0.07,VWS V14.00,2013-01-27 03:16:00,
2013-01-26 22:21:00,20.2,18.0,30.40,WSW,252,0.0,0.0,91,0.00,,OVC035,0.07,VWS V14.00,2013-01-27 03:21:00,
2013-01-26 22:26:00,19.9,17.7,30.40,WSW,252,0.0,0.0,91,0.00,,OVC035,0.07,VWS V14.00,2013-01-27 03:26:00,
2013-01-26 22:31:00,19.7,17.5,30.40,WSW,252,0.0,0.0,91,0.00,,OVC035,0.07,VWS V14.00,2013-01-27 03:31:00,
2013-01-26 22:36:00,19.7,17.5,30.40,WSW,252,0.0,0.0,91,0.00,,OVC035,0.07,VWS V14.00,2013-01-27 03:36:00,
2013-01-26 22:41:00,19.5,17.3,30.41,WSW,252,0.0,0.0,91,0.00,,OVC035,0.07,VWS V14.00,2013-01-27 03:41:00,
2013-01-26 22:46:00,19.4,17.5,30.41,WSW,252,0.0,0.0,92,0.00,,OVC035,0.07,VWS V14.00,2013-01-27 03:46:00,
2013-01-26 22:51:00,19.4,17.5,30.41,WSW,252,0.0,0.0,92,0.00,,OVC035,0.07,VWS V14.00,2013-01-27 03:51:00,
2013-01-26 22:56:00,19.4,17.5,30.41,WSW,252,0.0,0.0,92,0.00,,OVC035,0.07,VWS V14.00,2013-01-27 03:56:00,
2013-01-26 23:01:00,19.4,17.5,30.41,WSW,252,0.0,0.0,92,0.00,,OVC150,0.07,VWS V14.00,2013-01-27 04:01:00,
2013-01-26 23:06:00,19.3,17.4,30.41,WSW,252,0.0,0.0,92,0.00,,OVC150,0.07,VWS V14.00,2013-01-27 04:06:00,
2013-01-26 23:11:00,19.1,17.2,30.41,WSW,252,2.0,2.0,92,0.00,,OVC150,0.07,VWS V14.00,2013-01-27 04:11:00,
2013-01-26 23:16:00,18.3,16.1,30.40,WSW,252,1.0,3.0,91,0.00,,OVC150,0.07,VWS V14.00,2013-01-27 04:16:00,
2013-01-26 23:21:00,17.9,16.0,30.41,WSW,252,0.0,3.0,92,0.00,,OVC150,0.07,VWS V14.00,2013-01-27 04:21:00,
2013-01-26 23:26:00,17.9,16.0,30.41,WSW,252,0.0,3.0,92,0.00,,OVC150,0.07,VWS V14.00,2013-01-27 04:26:00,
2013-01-26 23:31:00,17.9,16.0,30.41,WSW,252,0.0,0.0,92,0.00,,OVC150,0.07,VWS V14.00,2013-01-27 04:31:00,
2013-01-26 23:36:00,17.6,15.7,30.42,WSW,252,0.0,0.0,92,0.00,,OVC150,0.07,VWS V14.00,2013-01-27 04:36:00,
2013-01-26 23:42:00,17.6,15.7,30.42,WSW,252,0.0,0.0,92,0.00,,OVC150,0.07,VWS V14.00,2013-01-27 04:42:00,
2013-01-26 23:47:00,17.8,15.9,30.42,WSW,252,0.0,0.0,92,0.00,,OVC150,0.07,VWS V14.00,2013-01-27 04:47:00,
2013-01-26 23:52:00,18.1,16.4,30.42,WSW,252,0.0,0.0,93,0.00,,OVC150,0.07,VWS V14.00,2013-01-27 04:52:00,
2013-01-26 23:57:00,18.4,16.7,30.42,WSW,252,0.0,0.0,93,0.00,,OVC150,0.07,VWS V14.00,2013-01-27 04:57:00,